Location: Betoncourt-l�s-Brotte
(47.7414°N, 6.3413°E)
Time: 11:54:51
(UTC+00:00)

Daily predictions for brighter satellites

Satellite Brightness Start Highest point End
(mag) Time Altitude Azimuth Time Altitude Azimuth Time Altitude Azimuth
Cosmos 1603 4.1 19:16:45 10° NNW 19:22:25 69° WSW 19:28:00 10° SSE
USA 307 4.3 19:20:22 10° W 19:24:24 40° NNW 19:28:27 10° ENE
ERBS 3.5 19:23:19 10° WSW 19:26:30 46° NNW 19:29:42 10° NE
Cosmos 1689 Rocket 4.4 19:25:32 10° N 19:28:00 28° WNW 19:30:26 10° SW
Aureole 1 Rocket 3.3 19:23:51 10° SSW 19:28:27 69° WNW 19:32:03 10° NNE
Helios 1A Rocket 4.3 19:25:44 10° S 19:29:38 41° W 19:33:35 10° NNW
Cosmos 540 Rocket 4.3 19:25:44 10° NNW 19:30:42 52° WSW 19:35:38 10° S
Nadezhda 2 Rocket 4.5 19:24:32 10° N 19:30:43 78° E 19:36:49 10° SSE
USA 290 4.5 19:29:08 10° NNE 19:30:57 14° NE 19:32:44 10° E
SJ-6B 3.1 19:27:55 10° S 19:31:45 70° W 19:35:41 10° NNW
Meteor 2-2 Rocket 4.2 19:26:17 10° S 19:31:55 75° E 19:37:33 10° NNE
BREEZE-M DEB (TANK) 1.5 19:29:54 10° W 19:33:20 74° NNW 19:35:22 10° ENE
Cosmos 1500 Rocket 3.7 19:30:38 10° N 19:35:01 60° ENE 19:39:20 10° SSE
CZ-4C R/B 4.1 19:31:31 10° NNW 19:37:18 30° NNE 19:44:01 10° E
USA 308 4.4 19:33:52 10° WNW 19:37:52 38° N 19:41:54 10° ENE
Cosmos 968 Rocket 4.1 19:33:14 10° SSE 19:38:02 37° ESE 19:42:50 10° NE
Terra 4.0 19:38:12 10° ENE 19:39:50 12° NE 19:41:26 10° NE
Cosmos 1553 Rocket 4.1 19:34:29 10° SSE 19:40:24 55° E 19:46:27 10° NNE
Cosmos 2221 2.7 19:41:42 10° SSW 19:45:59 80° WNW 19:50:20 10° N
USA 245 4.4 19:45:38 10° E 19:46:37 12° ENE 19:47:34 10° NE
Resurs 01 Rocket 1.8 19:43:31 10° SSE 19:47:53 57° ENE 19:52:16 10° N
Intercosmos 25 Rocket 4.4 19:41:29 10° N 19:49:06 69° ENE 19:53:37 10° SSE
Cosmos 2208 Rocket 4.4 19:45:40 10° NNW 19:51:04 69° WSW 19:56:28 10° S
SL-4 R/B 2.3 19:50:27 10° WNW 19:54:50 78° SSW 19:58:56 13° ESE
Cosmos 1242 Rocket 4.0 19:52:52 13° SE 19:54:57 20° E 19:57:38 10° NE
IGS 5A 3.6 19:51:13 10° SSE 19:55:17 57° ENE 19:59:23 10° N
DELTA 2 R/B (1) 4.3 19:50:30 10° WSW 19:55:32 36° S 20:00:02 13° ESE
FALCON 9 DEB 2.9 19:55:17 10° WNW 19:58:19 67° SSW 20:00:34 16° SE
NOSS 2-2 (C) 4.5 19:55:26 10° NW 20:00:47 88° SW 20:07:34 13° SE
USA 215 4.5 19:55:35 10° ENE 20:01:33 40° N 20:07:32 10° WNW
X-37B 0.9 20:01:45 10° WSW 20:04:51 48° S 20:07:15 15° ESE
CZ-2C R/B 4.1 20:01:09 10° NNE 20:05:24 41° E 20:09:39 10° S
Cosmos 2263 Rocket 3.7 20:00:42 10° WSW 20:05:57 41° NW 20:11:14 10° NNE
Cosmos 1606 2.6 20:02:15 10° S 20:06:00 89° WSW 20:09:49 10° N
BREEZE-M DEB (TANK) 4.4 19:49:48 10° SW 20:08:18 78° SSE 20:12:27 10° ENE
Landsat 7 3.8 20:05:16 11° SSE 20:09:47 73° ENE 20:14:34 10° N
Sich 1 3.2 20:05:54 10° N 20:10:11 58° ENE 20:13:40 15° SSE
Cosmos 1844 Rocket 2.7 20:06:07 10° S 20:11:33 58° ESE 20:17:02 10° NE
Spot 2 Rocket 4.0 20:08:53 15° SE 20:12:44 43° ENE 20:17:30 10° N
BREEZE-M DEB (TANK) 4.1 20:12:35 10° WSW 20:13:59 14° SSW 20:15:24 11° S
USA 305 4.4 20:17:25 10° WNW 20:21:21 35° N 20:25:18 10° ENE
MetOp-B 4.1 20:18:56 13° SSE 20:23:44 87° ENE 20:29:08 10° NNW
BREEZE-M R/B 2.2 20:22:05 10° SW 20:24:28 36° SSE 20:24:56 32° ESE
OBJECT-B 3.7 20:22:43 10° SW 20:24:32 14° W 20:26:21 10° WNW
Cosmos 1844 3.7 20:19:40 10° S 20:25:19 61° ESE 20:30:55 10° NNE
Cosmos 1503 Rocket 4.3 20:21:35 10° S 20:26:28 45° ESE 20:31:24 10° NNE
Cosmos 1933 3.3 20:24:25 13° S 20:27:58 65° E 20:31:59 10° NNE
OE (NEXTSAT) 4.3 20:27:01 10° WSW 20:30:27 61° S 20:32:31 22° E
[s.n.48335] 2.5 20:30:48 10° SW 20:33:24 50° SSE 20:34:27 29° E
[s.n.48334] 2.5 20:30:52 10° SW 20:33:28 50° SSE 20:34:30 29° E
[s.n.48333] 2.5 20:31:02 10° SW 20:33:33 49° SSE 20:34:08 39° ESE
[s.n.48332] 2.5 20:30:58 10° SW 20:33:34 50° SSE 20:34:36 29° E
[s.n.48331] 2.5 20:31:06 10° SW 20:33:43 51° SE 20:34:44 29° E
[s.n.48330] 2.5 20:31:17 10° SW 20:33:48 50° SSE 20:34:23 39° ESE
[s.n.48329] 2.5 20:31:16 10° SW 20:33:53 51° SSE 20:34:54 29° E
[s.n.48328] 2.5 20:31:25 10° SW 20:33:57 50° SSE 20:34:31 39° ESE
[s.n.48327] 2.5 20:31:29 10° SW 20:34:01 50° SSE 20:34:35 39° ESE
[s.n.48326] 2.5 20:31:29 10° SW 20:34:04 51° SSE 20:35:01 31° E
ERS-1 Rocket 3.5 20:31:14 21° SE 20:34:15 45° ENE 20:39:02 10° N
Cosmos 1151 Rocket 3.4 20:34:16 22° SSE 20:36:43 46° E 20:40:55 10° NNE
[s.n.48324] 2.5 20:34:18 10° SW 20:36:56 55° SSE 20:37:54 32° E
ARIANE 5 R/B 2.7 20:34:30 23° SSE 20:37:04 63° ENE 20:41:22 10° N
[s.n.48325] 2.4 20:34:57 10° SW 20:37:35 55° SSE 20:38:31 33° E
Cosmos 1437 4.2 20:38:09 19° ENE 20:38:09 19° ENE 20:39:47 10° NE
[s.n.48323] 2.4 20:35:11 10° SW 20:37:44 55° SSE 20:38:14 44° ESE
[s.n.48321] 2.4 20:35:23 10° SW 20:37:57 55° SSE 20:38:27 44° E
[s.n.48320] 2.4 20:35:26 10° SW 20:38:00 55° SSE 20:38:31 44° E
[s.n.48322] 2.4 20:35:22 10° SW 20:38:00 56° SSE 20:38:55 33° E
[s.n.48319] 2.4 20:35:32 10° SW 20:38:05 55° SSE 20:38:35 44° ESE
[s.n.48318] 2.4 20:35:32 10° SW 20:38:06 55° SSE 20:38:36 44° E
[s.n.48317] 2.4 20:35:42 10° SW 20:38:16 55° SSE 20:38:43 45° ESE
[s.n.48316] 2.4 20:35:47 10° SW 20:38:20 55° SSE 20:38:49 45° ESE
[s.n.48315] 2.4 20:35:47 10° SW 20:38:25 56° SSE 20:39:20 33° E
[s.n.48314] 2.4 20:35:51 10° SW 20:38:30 57° SSE 20:39:26 33° E
[s.n.48313] 2.4 20:35:57 10° SW 20:38:35 57° SSE 20:39:30 34° E
ATLAS 5 CENTAUR R/B 2.4 20:33:10 10° NW 20:38:39 70° NE 20:42:54 22° SE
[s.n.48312] 2.4 20:36:01 10° SW 20:38:40 57° SSE 20:39:33 34° E
[s.n.48311] 2.4 20:36:08 10° SW 20:38:46 57° SSE 20:39:40 34° E
[s.n.48310] 2.4 20:36:10 10° SW 20:38:46 57° SSE 20:39:33 37° E
[s.n.48309] 2.4 20:36:16 10° SW 20:38:51 57° SSE 20:39:38 37° E
[s.n.48308] 2.4 20:36:20 10° SW 20:39:00 57° SSE 20:39:54 33° E
[s.n.48307] 2.3 20:36:31 10° SW 20:39:06 56° SSE 20:39:35 45° E
[s.n.48306] 2.4 20:36:29 10° SW 20:39:08 57° SSE 20:40:01 34° E
[s.n.48305] 2.4 20:36:36 10° SW 20:39:15 58° SSE 20:40:09 34° E
[s.n.48304] 2.3 20:36:45 10° SW 20:39:19 57° SSE 20:39:47 46° ESE
[s.n.48303] 2.4 20:36:45 10° SW 20:39:24 58° SSE 20:40:17 34° E
[s.n.48302] 2.4 20:36:49 10° SW 20:39:28 58° SSE 20:40:22 34° E
[s.n.48301] 2.3 20:37:01 10° SW 20:39:35 57° SSE 20:40:04 46° E
[s.n.48300] 2.3 20:37:03 10° SW 20:39:38 57° SSE 20:40:06 46° ESE
[s.n.48299] 2.3 20:37:11 10° SW 20:39:45 57° SSE 20:40:14 46° E
[s.n.48298] 2.4 20:37:10 10° SW 20:39:49 58° SSE 20:40:43 35° E
[s.n.48297] 2.4 20:37:16 10° SW 20:39:55 59° SSE 20:40:49 34° E
[s.n.48296] 2.4 20:37:20 10° SW 20:39:59 59° SSE 20:40:54 34° E
[s.n.48295] 2.3 20:37:31 10° SW 20:40:05 58° SSE 20:40:32 47° ESE
[s.n.48294] 2.3 20:37:36 10° SW 20:40:11 58° SSE 20:40:39 47° E
[s.n.48293] 2.3 20:37:40 10° SW 20:40:15 58° SSE 20:40:42 47° E
[s.n.48292] 2.4 20:37:39 10° SW 20:40:19 59° SSE 20:41:11 35° E
[s.n.48291] 2.3 20:37:50 10° SW 20:40:25 58° SSE 20:40:52 48° E
[s.n.48290] 2.3 20:37:53 10° SW 20:40:27 58° SSE 20:40:55 47° E
USA 306 4.3 20:36:32 10° WNW 20:40:30 36° N 20:44:28 10° ENE
[s.n.48289] 2.3 20:38:01 10° SW 20:40:36 59° SSE 20:41:03 48° E
[s.n.48288] 2.3 20:38:04 10° SW 20:40:39 59° SSE 20:41:06 48° E
[s.n.48286] 2.3 20:38:08 10° SW 20:40:43 59° SSE 20:41:11 47° E
[s.n.48287] 2.3 20:38:09 10° SW 20:40:44 59° SSE 20:41:11 48° E
CREW DRAGON DEMO-1 DEB 4.1 20:38:23 10° WNW 20:40:51 33° N 20:42:58 13° ENE
[s.n.48285] 2.3 20:38:20 10° SW 20:40:55 59° SSE 20:41:21 49° ESE
[s.n.48284] 2.3 20:38:25 10° SW 20:40:59 59° SSE 20:41:25 49° ESE
[s.n.48283] 2.3 20:38:31 10° SW 20:41:05 59° SSE 20:41:31 49° ESE
[s.n.48282] 2.3 20:38:36 10° SW 20:41:10 59° SSE 20:41:36 49° ESE
[s.n.48281] 2.4 20:38:36 10° SW 20:41:15 60° SSE 20:42:09 35° E
[s.n.48280] 2.3 20:38:46 10° SW 20:41:21 60° SSE 20:41:47 49° E
[s.n.48279] 2.3 20:38:49 10° SW 20:41:25 60° SSE 20:41:51 49° E
[s.n.48278] 2.4 20:38:49 10° SW 20:41:29 61° SSE 20:42:22 35° E
[s.n.48277] 2.3 20:39:00 10° SW 20:41:35 60° SSE 20:42:01 49° E
[s.n.48276] 2.4 20:39:02 10° SW 20:41:42 61° SSE 20:42:35 35° E
SPOT 1/Viking Rocket 3.6 20:38:44 18° SSE 20:42:42 82° WSW 20:47:56 10° NNW
Cosmos 1833 Rocket 3.7 20:37:58 10° NNW 20:43:07 34° NE 20:46:34 18° ESE
Cosmos 1745 Rocket 4.4 20:39:54 10° NNW 20:46:02 63° W 20:51:58 11° S
FALCON 9 DEB 4.4 20:43:47 10° W 20:46:13 22° SW 20:46:48 21° SSW
Cosmos 1805 Rocket 4.5 20:42:11 10° NNW 20:46:20 45° W 20:50:08 12° SSW
Cosmos 1709 Rocket 3.9 20:43:06 10° N 20:49:16 85° E 20:53:35 21° S
Cosmos 883 Rocket 4.5 20:43:51 11° S 20:49:58 81° E 20:56:21 10° N
Cosmos 1437 Rocket 4.1 20:47:19 10° SW 20:50:57 40° WNW 20:54:42 10° N
Cosmos 1666 4.1 20:48:07 10° NNE 20:51:11 23° ENE 20:51:54 22° E
Cosmos 1633 Rocket 3.0 20:52:00 10° N 20:56:25 87° E 20:58:36 30° S
Cosmos 1354 Rocket 3.9 20:51:44 13° S 20:56:27 69° ESE 21:01:40 10° NNE
SPOT 5 3.0 20:55:30 28° SSE 20:58:06 70° ENE 21:03:17 10° N
Cosmos 1782 2.7 20:56:56 28° S 20:58:58 79° E 21:02:58 10° NNE
Cosmos 2315 Rocket 4.0 20:55:20 15° S 21:00:42 81° E 21:07:08 10° N
COSMOS 2406 3.8 20:57:37 10° NNW 21:03:06 46° NE 21:05:59 26° ESE
Cosmos 1470 Rocket 3.7 20:59:07 10° N 21:03:34 61° ENE 21:05:12 36° SE
USA 307 4.2 21:01:03 10° WNW 21:05:05 38° N 21:08:45 12° ENE
USA 290 3.0 21:02:30 10° NW 21:05:37 44° WSW 21:06:28 35° SSW
Cosmos 1328 Rocket 3.5 21:06:37 29° S 21:08:49 80° E 21:13:15 10° NNE
SWARM C 4.4 21:08:15 10° N 21:11:36 78° E 21:12:02 63° SSE
SWARM A 4.1 21:08:22 10° N 21:11:42 81° E 21:12:11 62° SSE
Cosmos 2082 Rocket 3.4 21:06:56 10° NNW 21:11:56 31° NE 21:14:57 19° E
CARTOSAT-1 3.8 21:11:00 29° S 21:13:03 62° W 21:17:21 10° NNW
CZ-4B DEB 4.3 21:14:30 59° E 21:14:41 61° ENE 21:17:53 10° N
Terra 1.8 21:14:54 38° SSE 21:16:44 74° ENE 21:21:30 10° N
Cosmos 1933 Rocket 3.7 21:14:03 10° N 21:18:20 56° ENE 21:19:23 44° SE
USA 308 4.1 21:14:28 10° WNW 21:18:33 41° NNE 21:21:39 16° ENE
Cosmos 1666 Rocket 4.5 21:15:54 10° NNW 21:20:07 44° W 21:22:27 23° SSW
Cosmos 1500 3.1 21:16:41 10° N 21:20:28 82° W 21:21:17 52° S
NOSS 3-4 (A) 4.5 21:14:56 10° NW 21:21:31 48° NE 21:26:44 19° ESE
NOSS 3-4 (C) 4.5 21:15:02 10° NW 21:21:36 48° NE 21:26:51 19° ESE
Resurs 01 Rocket 4.1 21:21:50 10° SW 21:24:45 17° W 21:27:40 10° NW
CZ-4C R/B 3.0 21:19:50 10° NW 21:26:58 75° NE 21:31:36 29° SE
Cosmos 1271 Rocket 3.5 21:27:36 36° E 21:27:36 36° E 21:31:08 10° NNE
Cosmos 1242 Rocket 4.3 21:26:46 12° SW 21:29:36 29° WNW 21:32:47 10° N
NOSS 3-3 (A) 3.8 21:26:05 14° SSW 21:31:10 70° SE 21:37:43 10° NE
NOSS 3-3 (C) 3.8 21:26:19 14° SSW 21:31:16 69° SE 21:37:47 10° NE
Cosmos 1538 Rocket 4.2 21:26:38 10° NNW 21:32:01 65° ENE 21:33:50 40° SE
Cosmos 1536 4.0 21:28:48 10° N 21:32:23 29° ENE 21:32:41 28° E
Cosmos 2228 Rocket 3.7 21:33:47 37° E 21:33:57 37° E 21:38:03 10° NNE
SL-4 R/B 3.8 21:30:37 10° W 21:34:05 22° SW 21:34:29 21° SW
ATLAS 2AS CENTAUR R/B 3.9 21:27:57 10° NW 21:34:59 40° NNE 21:40:34 14° E
Meteor 1-10 Rocket 4.3 21:34:27 41° SSE 21:36:12 59° E 21:41:43 10° NNE
Cosmos 2278 Rocket 2.4 21:36:18 41° SSE 21:37:45 51° ESE 21:43:13 10° NE
X-37B 2.6 21:38:12 10° W 21:39:33 21° WSW 21:39:33 21° WSW
USA 215 3.9 21:37:52 11° E 21:43:52 53° NNE 21:50:12 10° NW
SJ 16-02 1.6 21:47:16 49° E 21:47:16 49° E 21:51:29 10° NNE
Iridium 4 Rocket 3.8 21:49:01 36° SSW 21:51:27 77° W 21:57:22 10° N
Cosmos 158 Rocket 3.9 21:55:38 10° NNW 22:00:31 68° ENE 22:01:24 55° ESE
Cosmos 1812 3.6 22:00:48 37° WSW 22:01:39 44° WNW 22:05:22 10° N
USA 305 3.4 21:57:39 10° WNW 22:01:53 58° NNE 22:02:57 43° ENE
deb Kosmos-1763 4.2 21:59:41 10° NNW 22:02:48 66° NW 22:02:48 66° NW
Cosmos 1943 Rocket 3.9 22:08:48 17° E 22:08:48 17° E 22:11:46 10° ENE
Cosmos 2327 Rocket 4.5 22:06:03 10° N 22:12:29 89° E 22:14:33 47° S
Cosmos 1544 3.8 22:10:10 10° N 22:13:05 46° NE 22:13:05 46° NE
USA 306 3.0 22:16:40 10° WNW 22:20:56 70° NNE 22:21:14 67° ENE
Cosmos 2154 Rocket 4.0 22:15:16 10° NNW 22:21:37 77° W 22:23:35 47° S
ATLAS 5 CENTAUR R/B 3.6 22:18:15 10° WNW 22:23:07 28° WSW 22:24:26 26° SW
Cosmos 923 Rocket 3.9 22:20:01 10° NNW 22:25:17 81° ENE 22:26:07 64° SE
Cosmos 1743 3.3 22:21:54 10° N 22:25:10 51° NE 22:25:10 51° NE
Cosmos 1869 Rocket 3.6 22:21:56 10° NNW 22:26:14 66° W 22:26:20 66° WSW
Cosmos 1666 4.2 22:23:31 10° NNW 22:26:42 27° W 22:26:45 27° W
Cosmos 1833 Rocket 3.2 22:21:49 10° NW 22:27:12 46° WSW 22:28:16 41° SW
Cosmos 1898 Rocket 4.0 22:30:44 43° E 22:30:44 43° E 22:35:40 10° NE
Cosmos 2297 4.5 22:31:05 36° ESE 22:31:05 36° ESE 22:36:03 10° NE
Meteor 1-27 Rocket 3.8 22:31:43 50° SSW 22:33:19 79° WNW 22:39:15 10° N
ALOS 2 3.0 22:34:29 51° ENE 22:34:35 52° ENE 22:38:51 10° N
Gbstr 26 Del rocket 4.4 22:37:04 10° WNW 22:44:24 64° N 22:50:22 10° E
Cosmos 2084 4.4 22:42:55 29° W 22:44:33 44° NW 22:48:40 10° NNE
Cosmos 962 Rocket 4.4 22:38:29 10° N 22:44:39 85° W 22:46:01 57° S
USA 307 3.1 22:41:07 10° WNW 22:44:51 66° WNW 22:44:51 66° WNW
Cosmos 1707 Rocket 3.5 22:46:33 80° NNE 22:46:33 80° NNE 22:50:43 10° N
COSMOS 2406 4.2 22:42:15 10° NW 22:47:14 32° WSW 22:48:02 31° WSW
Nadezhda 1 Rocket 4.5 22:47:56 35° SW 22:50:26 55° WNW 22:56:36 10° N
SL-24 R/B - RUBIN 2 4.3 22:46:21 10° NW 22:51:55 59° NE 22:53:04 48° E
Terra 4.0 22:53:47 14° WSW 22:55:02 15° W 22:57:41 10° NW
Meteor 1-19 Rocket 4.3 22:55:00 55° ESE 22:55:22 56° E 23:00:39 10° NNE
Cosmos 2082 Rocket 2.4 22:50:50 10° NW 22:56:16 52° WSW 22:56:47 50° SW
Okean 1 3.9 22:57:49 54° NE 22:57:49 54° NE 23:01:03 10° NNE
Cosmos 2181 Rocket 3.9 22:57:25 57° SSE 22:58:34 71° E 23:04:42 10° NNE
USA 308 3.5 22:54:32 10° WNW 22:57:44 49° WNW 22:57:44 49° WNW
Spot 4 4.1 22:59:10 54° WSW 22:59:22 55° W 23:04:10 10° NNW
Cosmos 990 Rocket 3.8 22:59:43 74° SSW 23:00:12 89° W 23:05:31 10° NNE
BREEZE-M DEB (TANK) 4.4 22:45:10 10° WNW 23:02:02 89° NNE 23:04:28 35° ESE
Cosmos 1340 Rocket 3.6 22:58:44 10° NNW 23:02:08 45° WNW 23:02:08 45° WNW
COBE Rocket 3.9 23:02:19 68° ESE 23:02:43 73° ENE 23:07:48 10° N
Cosmos 2112 Rocket 3.9 22:58:51 10° NNW 23:04:12 75° WSW 23:04:36 71° SSW
Cosmos 1536 4.5 23:05:20 10° NNW 23:08:23 25° W 23:08:23 25° W
Cosmos 2341 Rocket 4.2 23:03:03 10° NNW 23:09:23 65° W 23:10:49 51° SSW
NOSS 3-4 (A) 4.1 23:05:50 10° NW 23:12:39 54° WSW 23:14:09 47° SSW
NOSS 3-4 (C) 4.1 23:05:56 10° NW 23:12:45 55° WSW 23:14:17 47° SSW
CZ-4C R/B 3.9 23:08:49 10° NW 23:15:20 33° WSW 23:16:47 31° SW
Cosmos 2366 rocket 3.9 23:10:28 10° N 23:16:40 86° W 23:17:51 61° S
Cosmos 1975 3.3 23:16:49 10° N 23:20:04 57° N 23:20:04 57° N
Cosmos 1733 Rocket 3.6 23:16:50 10° NNW 23:20:35 50° WNW 23:20:35 50° WNW
Cosmos 2278 Rocket 3.7 23:18:05 15° WSW 23:22:05 32° NW 23:27:08 10° NNE
SeaSat 1 2.5 23:20:12 10° NE 23:24:55 62° ESE 23:24:55 62° ESE
SJ 16-02 3.4 23:24:13 17° W 23:26:02 21° NW 23:29:30 10° N
ATLAS 2AS CENTAUR R/B 2.7 23:19:09 10° NW 23:26:29 70° SW 23:27:59 55° S
USA 215 3.1 23:25:10 52° SSE 23:26:46 71° SW 23:33:19 10° WNW
Cosmos 1818 3.6 23:24:08 10° NW 23:29:39 76° NE 23:30:38 59° ESE
Cosmos 1908 Rocket 3.7 23:26:23 10° N 23:30:37 72° NE 23:30:37 72° NE
Thor Agena Rocket 3.4 23:25:40 10° NNE 23:30:55 76° ESE 23:31:15 72° SE
Cosmos 2218 Rocket 4.1 23:25:33 10° NNW 23:31:45 67° W 23:32:57 55° SW
Cosmos 1680 Rocket 4.3 23:27:58 10° NW 23:32:49 38° WSW 23:32:49 38° WSW
Cosmos 2369 Rocket 2.7 23:34:06 44° ESE 23:34:13 44° ESE 23:39:34 10° NE
Meteor 2-9 Rocket 4.4 23:32:13 10° NNW 23:37:57 59° W 23:38:37 55° SW
Cosmos 1937 Rocket 3.5 23:40:21 64° WSW 23:40:52 69° WNW 23:46:03 10° NNE
Meteor 2-4 Rocket 3.6 23:42:44 67° S 23:43:33 83° E 23:49:16 10° NNE
Meteor 1-18 Rocket 4.3 23:44:04 56° WSW 23:45:00 65° WNW 23:50:37 10° N
Cosmos 489 Rocket 4.4 23:41:13 10° NNW 23:47:24 69° WSW 23:48:22 60° SSW
Cosmos 44 3.6 23:42:14 10° NW 23:47:25 61° WSW 23:47:25 61° WSW
Cosmos 1943 Rocket 2.1 23:50:17 63° SW 23:51:11 79° WNW 23:56:51 10° NNE
